Skip Page Navigation
NASA JPL Caltech
NASA Logo - Jet Propulsion Laboratory + View the NASA Portal
+ Center for Near-Earth Object Studies
JPL Home Earth Solar System Stars & Galaxies Technology
JPL Solar System Dynamics
BODIES ORBITS EPHEMERIDES TOOLS PHYSICAL DATA DISCOVERY FAQ SITE MAP
JPL Small-Body Database Browser
Search: [ help ]  
233679 (2008 RV79)
Classification: Main-belt Asteroid          SPK-ID: 2233679
Ephemeris | Orbit Diagram | Orbital Elements | Mission Design | Physical Parameters | Discovery Circumstances | Close-Approach Data ]

[ show orbit diagram ]
Orbital Elements at Epoch 2459000.5 (2020-May-31.0) TDB
Reference: JPL 17 (heliocentric ecliptic J2000)
 Element Value Uncertainty (1-sigma)   Units 
e .1480529117666669 5.7089e-08  
a 2.689768071810648 2.5331e-08 au
q 2.291540076802068 1.598e-07 au
i 6.681216627419482 4.093e-06 deg
node 119.6714151658688 5.269e-05 deg
peri 251.5266840445547 5.4277e-05 deg
M 217.1358036646327 1.4896e-05 deg
tp 2459639.927896913581
(2022-Mar-01.42789691)
6.9994e-05 TDB
period 1611.278744385464
4.41
2.2762e-05
6.232e-08
d
yr
n .2234250288812087 3.1562e-09 deg/d
Q 3.087996066819227 2.9082e-08 au
  Orbit Determination Parameters
   # obs. used (total)      328  
   data-arc span      6618 days (18.12 yr)  
   first obs. used      2002-04-12  
   last obs. used      2020-05-25  
   planetary ephem.      DE431  
   SB-pert. ephem.      SB431-N16  
   condition code      0  
   norm. resid. RMS      .54852  
   source      ORB  
   producer      Otto Matic  
   solution date      2020-Nov-12 01:52:06  

Additional Information
 Earth MOID = 1.30161 au 
 Jupiter MOID = 2.39956 au 
 T_jup = 3.347 
[ show covariance matrix ]

Ephemeris | Orbit Diagram | Orbital Elements | Mission Design | Physical Parameters | Discovery Circumstances | Close-Approach Data ]

Physical Parameter Table
Parameter Symbol Value Units Sigma Reference Notes
absolute magnitude H 16.2   n/a MPO470488  

233679 (2008 RV79)          Discovered 2008-Sep-03 by La Sagra at La Sagra
Reference: 20100228/Numbers.arcLast Updated: 2010-03-03

[ show close-approach data ]
Alternate Designations
 2008 RV79 = 2004 VF130 
Ephemeris | Orbit Diagram | Orbital Elements | Mission Design | Physical Parameters | Discovery Circumstances | Close-Approach Data ]
ABOUT SSD CREDITS/AWARDS PRIVACY/COPYRIGHT GLOSSARY LINKS
FirstGov 2020-Dec-04 20:49 UT
(server date/time)  
NASA Home Page
Site Manager:   Ryan S. Park
Webmaster  Alan B. Chamberlin